Location: �terpigny
(49.8910°N, 2.9249°E)
Time: 19:30:00
(UTC+00:00)

Meteor 1-4 Rocket - Pass Details

Date: 24 October 2021
Orbit: 447 x 496 km, 81.2° (Epoch: 07 December)

Event Time Altitude Azimuth Distance (km) Brightness Sun altitude
Rises 18:31:39 0° 195° (SSW) 2,464 6.3 -18.7°
Reaches altitude 10° 18:33:44 10° 198° (SSW) 1,589 5.3 -19.0°
Maximum altitude 18:37:11 71° 283° (WNW) 482 2.6 -19.6°
Drops below altitude 10° 18:40:38 10° 8° (N) 1,589 5.1 -20.1°
Enters shadow 18:42:00 - 10° (N) 2,162 5.8 -20.3°
